| time (UTC) | temp F | wind direction | speed MPH | gust MPH | rain 1hr in | rain 24hr in | rain mn in | humidity % | barometer mb |
| 20260509223521 | 67 | 132 | 2.0 | 5.0 | 0.00 | 0.00 | 0.00 | 70 | |
| 20260509222521 | 67 | 171 | 1.0 | 5.0 | 0.00 | 0.00 | 0.00 | 71 | |
| 20260509221521 | 66 | 120 | 2.0 | 5.0 | 0.00 | 0.00 | 0.00 | 72 | |
| 20260509220521 | 65 | 155 | 2.0 | 3.0 | 0.00 | 0.00 | 0.00 | 72 | |
| 20260509215533 | 64 | 180 | 1.0 | 3.0 | 0.00 | 0.00 | 0.00 | 74 | |
| 20260509214521 | 64 | 147 | 2.0 | 4.0 | 0.00 | 0.00 | 0.00 | 74 | |
| 20260509213521 | 63 | 157 | 2.0 | 5.0 | 0.00 | 0.00 | 0.00 | 73 | |
| 20260509212521 | 63 | 135 | 0.0 | 2.0 | 0.00 | 0.00 | 0.00 | 74 | |
| 20260509211521 | 62 | 338 | 0.0 | 2.0 | 0.00 | 0.00 | 0.00 | 74 | |
| 20260509210521 | 62 | 338 | 0.0 | 2.0 | 0.00 | 0.00 | 0.00 | 74 | |
| 20260509205521 | 61 | 338 | 0.0 | 2.0 | 0.00 | 0.00 | 0.00 | 75 | |
| 20260509204521 | 61 | 338 | 0.0 | 2.0 | 0.00 | 0.00 | 0.00 | 74 | |
| 20260509203533 | 60 | 338 | 0.0 | 2.0 | 0.00 | 0.00 | 0.00 | 76 | |
| 20260509202521 | 60 | 338 | 0.0 | 4.0 | 0.00 | 0.00 | 0.00 | 79 | |
| 20260509201533 | 61 | 135 | 0.0 | 2.0 | 0.00 | 0.00 | 0.00 | 75 | |
| 20260509200521 | 61 | 104 | 0.0 | 2.0 | 0.00 | 0.00 | 0.00 | 73 | |
| 20260509195521 | 61 | 338 | 0.0 | 2.0 | 0.00 | 0.00 | 0.00 | 74 | |
| 20260509194521 | 60 | 338 | 0.0 | 1.0 | 0.00 | 0.00 | 0.00 | 75 | |
| 20260509193521 | 60 | 338 | 0.0 | 2.0 | 0.00 | 0.00 | 0.00 | 76 | |
| 20260509192521 | 61 | 345 | 0.0 | 2.0 | 0.00 | 0.00 | 0.00 | 76 | |
| 20260509191521 | 61 | 329 | 1.0 | 3.0 | 0.00 | 0.00 | 0.00 | 76 | |
| 20260509190521 | 60 | 338 | 1.0 | 2.0 | 0.00 | 0.00 | 0.00 | 77 | |
| 20260509185521 | 59 | 195 | 1.0 | 2.0 | 0.00 | 0.00 | 0.00 | 79 | |
| 20260509184521 | 59 | 7 | 1.0 | 2.0 | 0.00 | 0.00 | 0.00 | 81 | |
| 20260509183521 | 60 | 167 | 1.0 | 2.0 | 0.00 | 0.00 | 0.00 | 80 | |
| 20260509182521 | 60 | 98 | 1.0 | 2.0 | 0.00 | 0.00 | 0.00 | 80 | |
| 20260509181521 | 59 | 151 | 1.0 | 2.0 | 0.00 | 0.00 | 0.00 | 81 | |
| 20260509180521 | 59 | 90 | 0.0 | 2.0 | 0.00 | 0.00 | 0.00 | 82 | |
| 20260509175533 | 58 | 338 | 0.0 | 1.0 | 0.00 | 0.00 | 0.00 | 84 | |
| 20260509174521 | 57 | 0.0 | 0.0 | 0.00 | 0.00 | 0.00 | 89 | ||
| 20260509173521 | 56 | 0.0 | 0.0 | 0.00 | 0.00 | 0.00 | 91 | ||
| 20260509172521 | 56 | 0.0 | 0.0 | 0.00 | 0.00 | 0.00 | 91 | ||
| 20260509171521 | 56 | 0.0 | 0.0 | 0.00 | 0.00 | 0.00 | 89 | ||
| 20260509170521 | 56 | 0.0 | 0.0 | 0.00 | 0.00 | 0.00 | 89 | ||
| 20260509165521 | 56 | 0.0 | 0.0 | 0.00 | 0.00 | 0.00 | 90 | ||
| 20260509164521 | 56 | 0.0 | 0.0 | 0.00 | 0.00 | 0.00 | 91 | ||
| 20260509163521 | 56 | 0.0 | 0.0 | 0.00 | 0.00 | 0.00 | 91 | ||
| 20260509162521 | 56 | 338 | 0.0 | 1.0 | 0.00 | 0.00 | 0.00 | 90 | |
| 20260509161521 | 55 | 338 | 0.0 | 1.0 | 0.00 | 0.00 | 0.00 | 91 | |
| 20260509160521 | 55 | 0.0 | 0.0 | 0.00 | 0.00 | 0.00 | 93 | ||
| 20260509155521 | 55 | 0.0 | 0.0 | 0.00 | 0.00 | 0.00 | 93 | ||
| 20260509154521 | 55 | 0.0 | 0.0 | 0.00 | 0.00 | 0.00 | 94 | ||
| 20260509153521 | 55 | 338 | 0.0 | 2.0 | 0.00 | 0.00 | 0.00 | 94 | |
| 20260509152521 | 55 | 338 | 0.0 | 1.0 | 0.00 | 0.00 | 0.00 | 93 | |
| 20260509151521 | 55 | 0.0 | 0.0 | 0.00 | 0.00 | 0.00 | 92 | ||
| 20260509150521 | 56 | 0.0 | 0.0 | 0.00 | 0.00 | 0.00 | 92 | ||
| 20260509145521 | 56 | 0.0 | 0.0 | 0.00 | 0.00 | 0.00 | 91 | ||
| 20260509144521 | 57 | 0.0 | 0.0 | 0.00 | 0.00 | 0.00 | 91 | ||
| 20260509143521 | 58 | 0.0 | 0.0 | 0.00 | 0.00 | 0.00 | 89 | ||
| 20260509142521 | 58 | 338 | 0.0 | 2.0 | 0.00 | 0.00 | 0.00 | 88 | |
| 20260509141521 | 58 | 338 | 0.0 | 2.0 | 0.00 | 0.00 | 0.00 | 88 | |
| 20260509140521 | 58 | 338 | 0.0 | 2.0 | 0.00 | 0.00 | 0.00 | 88 | |
| 20260509135521 | 58 | 338 | 0.0 | 1.0 | 0.00 | 0.00 | 0.00 | 88 | |
| 20260509134521 | 58 | 338 | 1.0 | 2.0 | 0.00 | 0.00 | 0.00 | 89 | |
| 20260509133521 | 58 | 338 | 1.0 | 2.0 | 0.00 | 0.00 | 0.00 | 89 | |
| 20260509132521 | 58 | 338 | 1.0 | 3.0 | 0.00 | 0.00 | 0.00 | 88 | |
| 20260509131521 | 58 | 338 | 1.0 | 2.0 | 0.00 | 0.00 | 0.00 | 87 | |
| 20260509130521 | 59 | 338 | 0.0 | 1.0 | 0.00 | 0.00 | 0.00 | 87 | |
| 20260509125521 | 59 | 0.0 | 0.0 | 0.00 | 0.00 | 0.00 | 85 | ||
| 20260509124521 | 59 | 338 | 0.0 | 2.0 | 0.00 | 0.00 | 0.00 | 84 | |
| 20260509123521 | 60 | 0.0 | 0.0 | 0.00 | 0.00 | 0.00 | 84 | ||
| 20260509122521 | 60 | 338 | 0.0 | 1.0 | 0.00 | 0.00 | 0.00 | 83 | |
| 20260509121521 | 60 | 338 | 0.0 | 1.0 | 0.00 | 0.00 | 0.00 | 83 | |
| 20260509120521 | 60 | 338 | 0.0 | 1.0 | 0.00 | 0.00 | 0.00 | 83 | |
| 20260509115521 | 60 | 338 | 0.0 | 1.0 | 0.00 | 0.00 | 0.00 | 83 | |
| 20260509114521 | 60 | 338 | 0.0 | 2.0 | 0.00 | 0.00 | 0.00 | 82 | |
| 20260509113521 | 60 | 338 | 1.0 | 2.0 | 0.00 | 0.00 | 0.00 | 83 | |
| 20260509112521 | 60 | 338 | 1.0 | 2.0 | 0.00 | 0.00 | 0.00 | 83 | |
| 20260509111521 | 60 | 0.0 | 0.0 | 0.00 | 0.00 | 0.00 | 83 | ||
| 20260509110521 | 60 | 225 | 0.0 | 2.0 | 0.00 | 0.00 | 0.00 | 83 | |
| 20260509105521 | 60 | 202 | 0.0 | 2.0 | 0.00 | 0.00 | 0.00 | 83 | |
| 20260509104521 | 60 | 202 | 0.0 | 1.0 | 0.00 | 0.00 | 0.00 | 85 | |
| 20260509103521 | 59 | 0.0 | 0.0 | 0.00 | 0.00 | 0.00 | 86 | ||
| 20260509102521 | 60 | 202 | 0.0 | 1.0 | 0.00 | 0.00 | 0.00 | 86 | |
| 20260509101521 | 60 | 202 | 0.0 | 1.0 | 0.00 | 0.00 | 0.00 | 85 | |
| 20260509100521 | 60 | 202 | 0.0 | 2.0 | 0.00 | 0.00 | 0.00 | 85 | |
| 20260509095521 | 60 | 0.0 | 0.0 | 0.00 | 0.00 | 0.00 | 83 | ||
| 20260509094520 | 60 | 0.0 | 0.0 | 0.00 | 0.00 | 0.00 | 84 | ||
| 20260509093521 | 60 | 0.0 | 0.0 | 0.00 | 0.00 | 0.00 | 83 | ||
| 20260509092521 | 61 | 0.0 | 0.0 | 0.00 | 0.00 | 0.00 | 83 | ||
| 20260509091521 | 61 | 0.0 | 0.0 | 0.00 | 0.00 | 0.00 | 82 | ||
| 20260509090521 | 61 | 0.0 | 0.0 | 0.00 | 0.00 | 0.00 | 81 | ||
| 20260509085521 | 62 | 0.0 | 0.0 | 0.00 | 0.00 | 0.00 | 81 | ||
| 20260509084521 | 62 | 0.0 | 0.0 | 0.00 | 0.00 | 0.00 | 79 | ||
| 20260509083521 | 63 | 202 | 0.0 | 1.0 | 0.00 | 0.00 | 0.00 | 78 | |
| 20260509082521 | 63 | 0.0 | 0.0 | 0.00 | 0.00 | 0.00 | 77 | ||
| 20260509081521 | 64 | 202 | 0.0 | 1.0 | 0.00 | 0.00 | 0.00 | 74 | |
| 20260509080533 | 65 | 0.0 | 0.0 | 0.00 | 0.00 | 0.00 | 73 | ||
| 20260509075521 | 66 | 0.0 | 0.0 | 0.00 | 0.00 | 0.00 | 70 | ||
| 20260509074521 | 66 | 0.0 | 0.0 | 0.00 | 0.00 | 0.00 | 68 | ||
| 20260509073520 | 67 | 202 | 0.0 | 1.0 | 0.00 | 0.00 | 0.00 | 66 | |
| 20260509072521 | 68 | 0.0 | 0.0 | 0.00 | 0.00 | 0.00 | 63 | 1020.1 | |
| 20260509065021 | 70 | 135 | 0.0 | 1.0 | 0.00 | 0.00 | 0.00 | 57 | |
| 20260509064020 | 70 | 135 | 0.0 | 2.0 | 0.00 | 0.00 | 0.00 | 57 | 1020.1 |
| 20260509063520 | 70 | 0.0 | 0.0 | 0.00 | 0.00 | 0.00 | 56 | ||
| 20260509062520 | 71 | 116 | 1.0 | 2.0 | 0.00 | 0.00 | 0.00 | 57 | |
| 20260509061520 | 71 | 123 | 0.0 | 5.0 | 0.00 | 0.00 | 0.00 | 59 | |
| 20260509060521 | 71 | 0.0 | 0.0 | 0.00 | 0.00 | 0.00 | 58 | ||
| 20260509055520 | 71 | 112 | 0.0 | 2.0 | 0.00 | 0.00 | 0.00 | 59 | |
| 20260509054520 | 72 | 112 | 0.0 | 5.0 | 0.00 | 0.00 | 0.00 | 56 | |
| 20260509053520 | 74 | 338 | 0.0 | 1.0 | 0.00 | 0.00 | 0.00 | 54 | |
| 20260509052520 | 75 | 278 | 0.0 | 3.0 | 0.00 | 0.00 | 0.00 | 52 | |
| 20260509051520 | 75 | 182 | 1.0 | 5.0 | 0.00 | 0.00 | 0.00 | 50 | |
| 20260509050520 | 76 | 174 | 2.0 | 6.0 | 0.00 | 0.00 | 0.00 | 49 | |
| 20260509045520 | 76 | 333 | 1.0 | 4.0 | 0.00 | 0.00 | 0.00 | 49 | |
| 20260509044520 | 74 | 0.0 | 0.0 | 0.00 | 0.00 | 0.00 | 49 | ||
| 20260509043520 | 73 | 0.0 | 0.0 | 0.00 | 0.00 | 0.00 | 50 | ||
| 20260509042520 | 73 | 137 | 1.0 | 5.0 | 0.00 | 0.00 | 0.00 | 50 | |
| 20260509041520 | 73 | 146 | 2.0 | 5.0 | 0.00 | 0.00 | 0.00 | 52 | |
| 20260509040520 | 73 | 202 | 0.0 | 1.0 | 0.00 | 0.00 | 0.00 | 52 | |
| 20260509035520 | 73 | 295 | 0.0 | 2.0 | 0.00 | 0.00 | 0.00 | 52 | |
| 20260509034520 | 73 | 210 | 0.0 | 2.0 | 0.00 | 0.00 | 0.00 | 53 | |
| 20260509033520 | 73 | 0.0 | 0.0 | 0.00 | 0.00 | 0.00 | 52 | ||
| 20260509032520 | 73 | 168 | 1.0 | 4.0 | 0.00 | 0.00 | 0.00 | 52 | |
| 20260509031520 | 73 | 111 | 1.0 | 4.0 | 0.00 | 0.00 | 0.00 | 53 | |
| 20260509030520 | 72 | 233 | 1.0 | 4.0 | 0.00 | 0.00 | 0.00 | 54 | |
| 20260509025521 | 72 | 170 | 2.0 | 5.0 | 0.00 | 0.00 | 0.00 | 53 | |
| 20260509024520 | 73 | 119 | 1.0 | 3.0 | 0.00 | 0.00 | 0.00 | 53 | |
| 20260509023520 | 72 | 117 | 1.0 | 5.0 | 0.00 | 0.00 | 0.00 | 53 | |
| 20260509022520 | 72 | 129 | 0.0 | 2.0 | 0.00 | 0.00 | 0.00 | 55 | |
| 20260509021520 | 72 | 178 | 2.0 | 6.0 | 0.00 | 0.00 | 0.00 | 55 | |
| 20260509020520 | 72 | 183 | 2.0 | 5.0 | 0.00 | 0.00 | 0.00 | 53 | |
| 20260509015520 | 72 | 151 | 3.0 | 6.0 | 0.00 | 0.00 | 0.00 | 52 | |
| 20260509014520 | 71 | 146 | 3.0 | 6.0 | 0.00 | 0.00 | 0.00 | 52 | 1020.1 |
| 20260509013520 | 72 | 141 | 2.0 | 6.0 | 0.00 | 0.00 | 0.00 | 51 | |
| 20260509012520 | 71 | 144 | 2.0 | 6.0 | 0.00 | 0.00 | 0.00 | 52 | |
| 20260509011520 | 71 | 145 | 4.0 | 7.0 | 0.00 | 0.00 | 0.00 | 52 | |
| 20260509010520 | 72 | 156 | 2.0 | 6.0 | 0.00 | 0.00 | 0.00 | 52 | |
| 20260509005520 | 72 | 166 | 4.0 | 8.0 | 0.00 | 0.00 | 0.00 | 53 | |
| 20260509004520 | 73 | 160 | 2.0 | 5.0 | 0.00 | 0.00 | 0.00 | 53 | |
| 20260509003520 | 73 | 135 | 1.0 | 2.0 | 0.00 | 0.00 | 0.00 | 51 | |
| 20260509002520 | 74 | 138 | 3.0 | 6.0 | 0.00 | 0.00 | 0.00 | 50 | |
| 20260509001520 | 73 | 141 | 2.0 | 5.0 | 0.00 | 0.00 | 0.00 | 50 | |
| 20260509000520 | 73 | 136 | 1.0 | 5.0 | 0.00 | 0.00 | 0.00 | 51 | |
| 20260508235520 | 73 | 154 | 2.0 | 5.0 | 0.00 | 0.00 | 0.00 | 51 | |
| 20260508234520 | 74 | 144 | 2.0 | 6.0 | 0.00 | 0.00 | 0.00 | 49 | |
| 20260508233520 | 72 | 112 | 1.0 | 4.0 | 0.00 | 0.00 | 0.00 | 51 | |
| 20260508232520 | 71 | 160 | 2.0 | 6.0 | 0.00 | 0.00 | 0.00 | 52 | |
| 20260508231520 | 69 | 165 | 1.0 | 4.0 | 0.00 | 0.00 | 0.00 | 54 | |
| 20260508230520 | 67 | 153 | 1.0 | 5.0 | 0.00 | 0.00 | 0.00 | 59 | |
| 20260508225520 | 67 | 120 | 1.0 | 4.0 | 0.00 | 0.00 | 0.00 | 59 | |
| 20260508224520 | 66 | 136 | 1.0 | 6.0 | 0.00 | 0.00 | 0.00 | 59 |